Regional Weather Roundup
Issued by NWS

Home | Current Version | Previous Version | Text Only | Print | Product List | Glossary On
Versions: 1 2 3 4 5 6 7 8 9 10 11 12 13 14 15 16 17 18 19 20 21 22 23 24 25 26 27 28 29 30 31 32 33 34 35 36 37 38 39 40 41 42 43 44 45 46 47 48 49 50
000
ASUS43 KBIS 241710
RWRND

NORTH DAKOTA REGIONAL WEATHER ROUNDUP
NATIONAL WEATHER SERVICE BISMARCK ND
1100 AM CST FRI FEB 24 2017

NOTE: "FAIR" INDICATES FEW OR NO CLOUDS BELOW 12,000 FEET WITH NO
SIGNIFICANT WEATHER AND/OR OBSTRUCTIONS TO VISIBILITY.


NDZ001>003-009>011-017-241800-
NORTHWEST NORTH DAKOTA

CITY           SKY/WX    TMP DP  RH WIND       PRES   REMARKS
WILLISTON      CLOUDY    23  17  78 SW3       30.16S
MINOT          FAIR      25  11  55 N3        30.14S
$$

NDZ018>021-031>035-040>046-241800-
SOUTHWEST NORTH DAKOTA

CITY           SKY/WX    TMP DP  RH WIND       PRES   REMARKS
BISMARCK       FAIR      27  16  63 N9        30.15S WCI  18
DICKINSON      CLOUDY    19  15  84 NW5       30.11R WCI  12
GARRISON         N/A     24  16  71 NW5       30.14R WCI  18
HETTINGER ARPT CLOUDY    23  12  62 E3        30.13R
$$

NDZ004>008-012>016-024-026-027-054-241800-
NORTHEAST NORTH DAKOTA

CITY           SKY/WX    TMP DP  RH WIND       PRES   REMARKS
GRAND FORKS    FLURRIES  19   6  57 N10       30.15S WCI   7
GRND FRKS AFB  CLOUDY    18   9  67 N8        30.15S WCI   8
DEVILS LAKE    CLOUDY    18  14  84 N15       30.13S WCI   4
$$

NDZ022-023-025-028>030-036>039-047>053-241800-
SOUTHEAST NORTH DAKOTA

CITY           SKY/WX    TMP DP  RH WIND       PRES   REMARKS
FARGO          SUNNY     23  13  65 N16       30.11S WCI  10
JAMESTOWN      FAIR      23  14  68 N17       30.09S WCI   9
$$




USA.gov is the U.S. government's official web portal to all federal, state and local government web resources and services.